Time,TemperatureF,DewpointF,PressureIn,WindDirection,WindDirectionDegrees,WindSpeedMPH,WindSpeedGustMPH,Humidity,HourlyPrecipIn,Conditions,Clouds,dailyrainin,SoftwareType,DateUTC
2017-06-28 00:01:00,58.5,53.4,30.10,WNW,288,0.0,0.0,83,0.00,,,0.00,VWS V15.00,2017-06-28 04:01:00,
2017-06-28 00:06:00,58.4,53.3,30.10,WNW,288,0.0,0.0,83,0.00,,,0.00,VWS V15.00,2017-06-28 04:06:00,
2017-06-28 00:11:00,58.2,53.4,30.10,WNW,288,0.0,0.0,84,0.00,,,0.00,VWS V15.00,2017-06-28 04:11:00,
2017-06-28 00:16:00,58.0,53.2,30.10,WNW,288,0.0,0.0,84,0.00,,,0.00,VWS V15.00,2017-06-28 04:16:00,
2017-06-28 00:21:00,57.8,53.3,30.10,WNW,288,0.0,0.0,85,0.00,,,0.00,VWS V15.00,2017-06-28 04:21:00,
2017-06-28 00:26:00,57.7,53.2,30.10,WNW,288,0.0,0.0,85,0.00,,,0.00,VWS V15.00,2017-06-28 04:26:00,
2017-06-28 00:32:00,57.7,53.2,30.10,WNW,288,0.0,0.0,85,0.00,,,0.00,VWS V15.00,2017-06-28 04:32:00,
2017-06-28 00:37:00,57.7,53.5,30.10,WNW,288,0.0,0.0,86,0.00,,,0.00,VWS V15.00,2017-06-28 04:37:00,
2017-06-28 00:42:00,57.8,53.7,30.10,WNW,288,0.0,0.0,86,0.00,,,0.00,VWS V15.00,2017-06-28 04:42:00,
2017-06-28 00:47:00,57.7,53.2,30.10,WNW,288,0.0,0.0,85,0.00,,,0.00,VWS V15.00,2017-06-28 04:47:00,
2017-06-28 00:52:00,57.6,53.5,30.10,WNW,288,0.0,0.0,86,0.00,,,0.00,VWS V15.00,2017-06-28 04:52:00,
2017-06-28 00:57:00,57.5,53.3,30.10,WNW,288,0.0,0.0,86,0.00,,,0.00,VWS V15.00,2017-06-28 04:57:00,
2017-06-28 01:02:00,57.5,53.7,30.10,WNW,288,0.0,0.0,87,0.00,,,0.00,VWS V15.00,2017-06-28 05:02:00,
2017-06-28 01:07:00,57.4,53.6,30.10,WNW,288,0.0,0.0,87,0.00,,,0.00,VWS V15.00,2017-06-28 05:07:00,
2017-06-28 01:12:00,57.3,53.5,30.10,WNW,288,0.0,0.0,87,0.00,,,0.00,VWS V15.00,2017-06-28 05:12:00,
2017-06-28 01:17:00,57.1,53.6,30.10,WNW,288,0.0,0.0,88,0.00,,,0.00,VWS V15.00,2017-06-28 05:17:00,
2017-06-28 01:22:00,56.9,53.4,30.10,WNW,288,0.0,0.0,88,0.00,,,0.00,VWS V15.00,2017-06-28 05:22:00,
2017-06-28 01:27:00,56.7,53.2,30.10,WNW,288,0.0,0.0,88,0.00,,,0.00,VWS V15.00,2017-06-28 05:27:00,
2017-06-28 01:32:00,56.3,52.8,30.10,WNW,288,0.0,0.0,88,0.00,,,0.00,VWS V15.00,2017-06-28 05:32:00,
2017-06-28 01:37:00,56.1,52.9,30.10,WNW,288,0.0,0.0,89,0.00,,,0.00,VWS V15.00,2017-06-28 05:37:00,
2017-06-28 01:42:00,55.9,52.7,30.10,WNW,288,0.0,0.0,89,0.00,,,0.00,VWS V15.00,2017-06-28 05:42:00,
2017-06-28 01:48:00,55.9,52.7,30.10,WNW,288,0.0,0.0,89,0.00,,,0.00,VWS V15.00,2017-06-28 05:48:00,
2017-06-28 01:53:00,55.7,52.5,30.10,WNW,288,0.0,0.0,89,0.00,,,0.00,VWS V15.00,2017-06-28 05:53:00,
2017-06-28 01:58:00,55.6,52.4,30.10,WNW,288,0.0,0.0,89,0.00,,,0.00,VWS V15.00,2017-06-28 05:58:00,
2017-06-28 02:03:00,55.5,52.6,30.10,WNW,288,0.0,0.0,90,0.00,,,0.00,VWS V15.00,2017-06-28 06:03:00,
2017-06-28 02:08:00,55.5,52.6,30.10,WNW,288,0.0,0.0,90,0.00,,,0.00,VWS V15.00,2017-06-28 06:08:00,
2017-06-28 02:13:00,55.4,52.5,30.10,WNW,288,0.0,0.0,90,0.00,,,0.00,VWS V15.00,2017-06-28 06:13:00,
2017-06-28 02:18:00,55.3,52.4,30.10,WNW,288,0.0,0.0,90,0.00,,,0.00,VWS V15.00,2017-06-28 06:18:00,
2017-06-28 02:23:00,55.3,52.7,30.10,WNW,288,0.0,0.0,91,0.00,,,0.00,VWS V15.00,2017-06-28 06:23:00,
2017-06-28 02:28:00,55.3,52.7,30.10,WNW,288,0.0,0.0,91,0.00,,,0.00,VWS V15.00,2017-06-28 06:28:00,
2017-06-28 02:33:00,55.1,52.5,30.10,WNW,288,0.0,0.0,91,0.00,,,0.00,VWS V15.00,2017-06-28 06:33:00,
2017-06-28 02:38:00,55.0,52.4,30.10,WNW,288,0.0,0.0,91,0.00,,,0.00,VWS V15.00,2017-06-28 06:38:00,
2017-06-28 02:43:00,55.0,52.4,30.10,WNW,288,0.0,0.0,91,0.00,,,0.00,VWS V15.00,2017-06-28 06:43:00,
2017-06-28 02:48:00,54.8,51.9,30.10,WNW,288,0.0,0.0,90,0.00,,,0.00,VWS V15.00,2017-06-28 06:48:00,
2017-06-28 02:53:00,54.7,52.1,30.10,WNW,288,0.0,0.0,91,0.00,,,0.00,VWS V15.00,2017-06-28 06:53:00,
2017-06-28 02:58:00,54.6,52.0,30.10,WNW,288,0.0,0.0,91,0.00,,,0.00,VWS V15.00,2017-06-28 06:58:00,
2017-06-28 03:04:00,54.6,52.0,30.10,WNW,288,0.0,0.0,91,0.00,,,0.00,VWS V15.00,2017-06-28 07:04:00,
2017-06-28 03:09:00,54.7,52.4,30.10,WNW,288,0.0,0.0,92,0.00,,,0.00,VWS V15.00,2017-06-28 07:09:00,
2017-06-28 03:14:00,54.7,52.4,30.10,WNW,288,0.0,0.0,92,0.00,,,0.00,VWS V15.00,2017-06-28 07:14:00,
2017-06-28 03:19:00,54.6,52.3,30.10,WNW,288,0.0,0.0,92,0.00,,,0.00,VWS V15.00,2017-06-28 07:19:00,
2017-06-28 03:24:00,54.5,52.2,30.10,WNW,288,0.0,0.0,92,0.00,,,0.00,VWS V15.00,2017-06-28 07:24:00,
2017-06-28 03:29:00,54.5,52.2,30.10,WNW,288,0.0,0.0,92,0.00,,,0.00,VWS V15.00,2017-06-28 07:29:00,
2017-06-28 03:34:00,54.4,52.1,30.10,WNW,288,0.0,0.0,92,0.00,,,0.00,VWS V15.00,2017-06-28 07:34:00,
2017-06-28 03:39:00,54.3,52.0,30.10,WNW,288,0.0,0.0,92,0.00,,,0.00,VWS V15.00,2017-06-28 07:39:00,
2017-06-28 03:44:00,54.2,51.9,30.10,WNW,288,0.0,0.0,92,0.00,,,0.00,VWS V15.00,2017-06-28 07:44:00,
2017-06-28 03:49:00,54.1,51.8,30.10,WNW,288,0.0,0.0,92,0.00,,,0.00,VWS V15.00,2017-06-28 07:49:00,
2017-06-28 03:54:00,54.0,51.7,30.10,WNW,288,0.0,0.0,92,0.00,,,0.00,VWS V15.00,2017-06-28 07:54:00,
2017-06-28 03:59:00,53.9,51.6,30.10,WNW,288,0.0,0.0,92,0.00,,,0.00,VWS V15.00,2017-06-28 07:59:00,
2017-06-28 04:04:00,53.9,51.6,30.10,WNW,288,0.0,0.0,92,0.00,,,0.00,VWS V15.00,2017-06-28 08:04:00,
2017-06-28 04:09:00,53.9,51.6,30.09,WNW,288,0.0,0.0,92,0.00,,,0.00,VWS V15.00,2017-06-28 08:09:00,
2017-06-28 04:14:00,53.9,51.6,30.10,WNW,288,0.0,0.0,92,0.00,,,0.00,VWS V15.00,2017-06-28 08:14:00,
2017-06-28 04:19:00,54.0,51.7,30.10,WNW,288,0.0,0.0,92,0.00,,,0.00,VWS V15.00,2017-06-28 08:19:00,
2017-06-28 04:24:00,54.1,51.8,30.10,WNW,288,0.0,0.0,92,0.00,,,0.00,VWS V15.00,2017-06-28 08:24:00,
2017-06-28 04:30:00,54.3,52.0,30.10,WNW,288,0.0,0.0,92,0.00,,,0.00,VWS V15.00,2017-06-28 08:30:00,
2017-06-28 04:35:00,54.5,52.2,30.10,WNW,288,0.0,0.0,92,0.00,,,0.00,VWS V15.00,2017-06-28 08:35:00,
2017-06-28 04:40:00,54.6,52.3,30.10,WNW,288,0.0,0.0,92,0.00,,,0.00,VWS V15.00,2017-06-28 08:40:00,
2017-06-28 04:45:00,54.5,51.9,30.10,WNW,288,0.0,0.0,91,0.00,,,0.00,VWS V15.00,2017-06-28 08:45:00,
2017-06-28 04:50:00,54.3,51.7,30.10,WNW,288,0.0,0.0,91,0.00,,,0.00,VWS V15.00,2017-06-28 08:50:00,
2017-06-28 04:55:00,54.2,51.6,30.10,WNW,288,0.0,0.0,91,0.00,,,0.00,VWS V15.00,2017-06-28 08:55:00,
2017-06-28 05:00:00,54.0,51.4,30.10,WNW,288,0.0,0.0,91,0.00,,,0.00,VWS V15.00,2017-06-28 09:00:00,
2017-06-28 05:05:00,53.9,51.3,30.10,WNW,288,0.0,0.0,91,0.00,,,0.00,VWS V15.00,2017-06-28 09:05:00,
2017-06-28 05:10:00,53.8,51.2,30.09,WNW,288,0.0,0.0,91,0.00,,,0.00,VWS V15.00,2017-06-28 09:10:00,
2017-06-28 05:15:00,53.7,51.4,30.09,WNW,288,0.0,0.0,92,0.00,,,0.00,VWS V15.00,2017-06-28 09:15:00,
2017-06-28 05:20:00,53.6,51.3,30.09,WNW,288,0.0,0.0,92,0.00,,,0.00,VWS V15.00,2017-06-28 09:20:00,
2017-06-28 05:26:00,53.5,51.2,30.08,WNW,288,0.0,0.0,92,0.00,,,0.00,VWS V15.00,2017-06-28 09:26:00,
2017-06-28 05:31:00,53.5,51.2,30.08,WNW,288,0.0,0.0,92,0.00,,,0.00,VWS V15.00,2017-06-28 09:31:00,
2017-06-28 05:36:00,53.5,51.2,30.08,WNW,288,0.0,0.0,92,0.00,,,0.00,VWS V15.00,2017-06-28 09:36:00,
2017-06-28 05:41:00,53.7,51.4,30.08,WNW,288,0.0,0.0,92,0.00,,,0.00,VWS V15.00,2017-06-28 09:41:00,
2017-06-28 05:46:00,53.9,51.3,30.08,WNW,288,0.0,0.0,91,0.00,,,0.00,VWS V15.00,2017-06-28 09:46:00,
2017-06-28 05:51:00,54.1,51.5,30.08,WNW,288,0.0,0.0,91,0.00,,,0.00,VWS V15.00,2017-06-28 09:51:00,
2017-06-28 05:56:00,54.4,51.5,30.08,SSE,153,1.0,2.0,90,0.00,,,0.00,VWS V15.00,2017-06-28 09:56:00,
2017-06-28 06:01:00,55.0,51.5,30.08,SSE,150,1.0,2.0,88,0.00,,,0.00,VWS V15.00,2017-06-28 10:01:00,
2017-06-28 06:06:00,55.7,51.6,30.08,SSE,150,1.0,2.0,86,0.00,,,0.00,VWS V15.00,2017-06-28 10:06:00,
2017-06-28 06:11:00,56.0,51.6,30.08,SSE,150,0.0,0.0,85,0.00,,,0.00,VWS V15.00,2017-06-28 10:11:00,
2017-06-28 06:16:00,56.0,51.6,30.08,SSE,150,0.0,0.0,85,0.00,,,0.00,VWS V15.00,2017-06-28 10:16:00,
2017-06-28 06:21:00,55.9,51.8,30.09,SSE,150,0.0,0.0,86,0.00,,,0.00,VWS V15.00,2017-06-28 10:21:00,
2017-06-28 06:27:00,55.8,51.7,30.09,SSE,150,0.0,0.0,86,0.00,,,0.00,VWS V15.00,2017-06-28 10:27:00,
2017-06-28 06:32:00,55.5,51.4,30.09,SSE,150,0.0,0.0,86,0.00,,,0.00,VWS V15.00,2017-06-28 10:32:00,
2017-06-28 06:37:00,55.5,51.4,30.10,SSE,150,0.0,0.0,86,0.00,,,0.00,VWS V15.00,2017-06-28 10:37:00,
2017-06-28 06:42:00,55.5,51.7,30.11,SSE,150,0.0,0.0,87,0.00,,,0.00,VWS V15.00,2017-06-28 10:42:00,
2017-06-28 06:47:00,55.4,51.6,30.11,SSE,150,0.0,0.0,87,0.00,,,0.00,VWS V15.00,2017-06-28 10:47:00,
2017-06-28 06:52:00,55.4,51.9,30.12,SSE,150,0.0,0.0,88,0.00,,,0.00,VWS V15.00,2017-06-28 10:52:00,
2017-06-28 06:56:00,55.4,51.6,30.12,SSE,150,0.0,0.0,87,0.00,,,0.00,VWS V15.00,2017-06-28 10:56:00,
2017-06-28 07:01:00,55.5,51.7,30.11,SE,145,1.0,2.0,87,0.00,,,0.00,VWS V15.00,2017-06-28 11:01:00,
2017-06-28 07:06:00,56.0,51.9,30.11,SE,140,0.0,2.0,86,0.00,,,0.00,VWS V15.00,2017-06-28 11:06:00,
2017-06-28 07:11:00,56.3,52.2,30.11,SE,140,0.0,1.0,86,0.00,,,0.00,VWS V15.00,2017-06-28 11:11:00,
2017-06-28 07:12:00,56.4,52.3,30.11,SE,140,0.0,1.0,86,0.00,,,0.00,VWS V15.00,2017-06-28 11:12:00,
2017-06-28 07:17:00,56.7,52.6,30.11,SE,140,0.0,1.0,86,0.00,,,0.00,VWS V15.00,2017-06-28 11:17:00,
2017-06-28 07:22:00,57.1,53.3,30.11,SE,140,0.0,0.0,87,0.00,,,0.00,VWS V15.00,2017-06-28 11:22:00,
2017-06-28 07:27:00,57.8,54.3,30.12,SE,140,0.0,0.0,88,0.00,,,0.00,VWS V15.00,2017-06-28 11:27:00,
2017-06-28 07:32:00,58.4,54.2,30.12,SE,140,0.0,0.0,86,0.00,,,0.00,VWS V15.00,2017-06-28 11:32:00,
2017-06-28 07:37:00,59.6,54.8,30.12,SE,140,0.0,0.0,84,0.00,,,0.00,VWS V15.00,2017-06-28 11:37:00,
2017-06-28 07:42:00,60.5,55.3,30.12,SE,140,0.0,0.0,83,0.00,,,0.00,VWS V15.00,2017-06-28 11:42:00,
2017-06-28 07:47:00,61.9,55.3,30.12,SE,140,0.0,0.0,79,0.00,,,0.00,VWS V15.00,2017-06-28 11:47:00,
2017-06-28 07:52:00,62.9,55.6,30.12,SE,140,0.0,1.0,77,0.00,,,0.00,VWS V15.00,2017-06-28 11:52:00,
2017-06-28 07:57:00,63.6,56.3,30.12,SE,140,0.0,1.0,77,0.00,,,0.00,VWS V15.00,2017-06-28 11:57:00,
2017-06-28 08:03:00,63.7,56.0,30.13,ESE,117,2.0,2.0,76,0.00,,,0.00,VWS V15.00,2017-06-28 12:03:00,
2017-06-28 08:08:00,64.2,57.2,30.13,ESE,117,1.0,4.0,78,0.00,,,0.00,VWS V15.00,2017-06-28 12:08:00,
2017-06-28 08:13:00,64.5,56.8,30.13,ESE,120,1.0,4.0,76,0.00,,,0.00,VWS V15.00,2017-06-28 12:13:00,
2017-06-28 08:18:00,64.8,56.3,30.13,SE,124,0.0,4.0,74,0.00,,,0.00,VWS V15.00,2017-06-28 12:18:00,
2017-06-28 08:23:00,65.3,56.4,30.13,SE,124,0.0,1.0,73,0.00,,,0.00,VWS V15.00,2017-06-28 12:23:00,
2017-06-28 08:28:00,66.0,57.1,30.13,ESE,110,1.0,4.0,73,0.00,,,0.00,VWS V15.00,2017-06-28 12:28:00,
2017-06-28 08:33:00,66.1,56.8,30.14,South,186,0.0,1.0,72,0.00,,,0.00,VWS V15.00,2017-06-28 12:33:00,
2017-06-28 08:38:00,65.9,57.0,30.14,South,186,0.0,1.0,73,0.00,,,0.00,VWS V15.00,2017-06-28 12:38:00,
2017-06-28 08:39:00,65.9,57.0,30.14,South,186,0.0,0.0,73,0.00,,,0.00,VWS V15.00,2017-06-28 12:39:00,
2017-06-28 08:44:00,66.2,57.3,30.14,South,186,1.0,2.0,73,0.00,,,0.00,VWS V15.00,2017-06-28 12:44:00,
2017-06-28 08:50:00,66.6,56.9,30.13,ESE,105,1.0,4.0,71,0.00,,,0.00,VWS V15.00,2017-06-28 12:50:00,
2017-06-28 08:55:00,67.1,56.2,30.13,SSE,164,1.0,4.0,68,0.00,,,0.00,VWS V15.00,2017-06-28 12:55:00,
2017-06-28 09:00:00,67.3,56.4,30.13,SSE,151,1.0,2.0,68,0.00,,,0.00,VWS V15.00,2017-06-28 13:00:00,
2017-06-28 09:05:00,67.2,55.5,30.13,SW,215,1.0,4.0,66,0.00,,,0.00,VWS V15.00,2017-06-28 13:05:00,
2017-06-28 09:10:00,67.2,55.5,30.13,South,189,1.0,2.0,66,0.00,,,0.00,VWS V15.00,2017-06-28 13:10:00,
2017-06-28 09:15:00,67.5,55.8,30.13,South,190,1.0,2.0,66,0.00,,,0.00,VWS V15.00,2017-06-28 13:15:00,
2017-06-28 09:20:00,67.6,55.8,30.13,SW,232,1.0,3.0,66,0.00,,,0.00,VWS V15.00,2017-06-28 13:20:00,
2017-06-28 09:25:00,67.6,55.8,30.13,SSW,192,2.0,3.0,66,0.00,,,0.00,VWS V15.00,2017-06-28 13:25:00,
2017-06-28 09:30:00,67.8,56.0,30.13,South,191,1.0,3.0,66,0.00,,,0.00,VWS V15.00,2017-06-28 13:30:00,
2017-06-28 09:35:00,68.4,57.4,30.13,SE,146,4.0,5.0,68,0.00,,,0.00,VWS V15.00,2017-06-28 13:35:00,
2017-06-28 09:40:00,69.2,57.0,30.14,East,82,2.0,2.0,65,0.00,,,0.00,VWS V15.00,2017-06-28 13:40:00,
2017-06-28 09:45:00,69.5,57.2,30.14,South,180,1.0,7.0,65,0.00,,,0.00,VWS V15.00,2017-06-28 13:45:00,
2017-06-28 09:50:00,69.7,57.8,30.13,ESE,117,1.0,4.0,66,0.00,,,0.00,VWS V15.00,2017-06-28 13:50:00,
2017-06-28 09:56:00,70.4,58.1,30.13,SSE,157,1.0,7.0,65,0.00,,,0.00,VWS V15.00,2017-06-28 13:56:00,
2017-06-28 10:01:00,70.8,58.0,30.13,SSE,164,1.0,6.0,64,0.00,,,0.00,VWS V15.00,2017-06-28 14:01:00,
2017-06-28 10:06:00,70.9,57.7,30.14,SW,219,1.0,6.0,63,0.00,,,0.00,VWS V15.00,2017-06-28 14:06:00,
2017-06-28 10:11:00,70.8,56.7,30.14,SW,234,2.0,3.0,61,0.00,,,0.00,VWS V15.00,2017-06-28 14:11:00,
2017-06-28 10:16:00,70.6,56.5,30.13,SSW,192,1.0,3.0,61,0.00,,,0.00,VWS V15.00,2017-06-28 14:16:00,
2017-06-28 10:21:00,71.0,59.5,30.13,SSE,167,1.0,2.0,67,0.00,,,0.00,VWS V15.00,2017-06-28 14:21:00,
2017-06-28 10:26:00,71.7,58.9,30.13,SSW,202,1.0,2.0,64,0.00,,,0.00,VWS V15.00,2017-06-28 14:26:00,
2017-06-28 10:31:00,71.8,57.6,30.14,SW,224,4.0,4.0,61,0.00,,,0.00,VWS V15.00,2017-06-28 14:31:00,
2017-06-28 10:36:00,71.4,56.3,30.13,SW,227,1.0,4.0,59,0.00,,,0.00,VWS V15.00,2017-06-28 14:36:00,
2017-06-28 10:41:00,71.8,58.5,30.13,SSE,148,1.0,4.0,63,0.00,,,0.00,VWS V15.00,2017-06-28 14:41:00,
2017-06-28 10:46:00,72.6,58.4,30.13,ESE,121,5.0,6.0,61,0.00,,,0.00,VWS V15.00,2017-06-28 14:46:00,
2017-06-28 10:51:00,73.0,58.8,30.13,SSE,159,1.0,2.0,61,0.00,,,0.00,VWS V15.00,2017-06-28 14:51:00,
2017-06-28 10:56:00,73.4,58.7,30.13,SSW,202,3.0,4.0,60,0.00,,,0.00,VWS V15.00,2017-06-28 14:56:00,
2017-06-28 11:01:00,72.9,56.8,30.13,SSW,200,3.0,4.0,57,0.00,,,0.00,VWS V15.00,2017-06-28 15:01:00,
2017-06-28 11:05:00,72.7,56.6,30.13,SW,225,1.0,4.0,57,0.00,,,0.00,VWS V15.00,2017-06-28 15:05:00,
2017-06-28 11:10:00,73.0,57.8,30.13,South,173,4.0,4.0,59,0.00,,,0.00,VWS V15.00,2017-06-28 15:10:00,
2017-06-28 11:15:00,73.2,57.1,30.13,SW,229,1.0,4.0,57,0.00,,,0.00,VWS V15.00,2017-06-28 15:15:00,
2017-06-28 11:20:00,73.5,58.8,30.13,SSE,163,2.0,4.0,60,0.00,,,0.00,VWS V15.00,2017-06-28 15:20:00,
2017-06-28 11:25:00,73.4,56.3,30.13,SW,232,3.0,4.0,55,0.00,,,0.00,VWS V15.00,2017-06-28 15:25:00,
2017-06-28 11:30:00,73.6,58.4,30.13,South,186,2.0,3.0,59,0.00,,,0.00,VWS V15.00,2017-06-28 15:30:00,
2017-06-28 11:35:00,73.8,57.1,30.13,SSW,205,2.0,4.0,56,0.00,,,0.00,VWS V15.00,2017-06-28 15:35:00,
2017-06-28 11:40:00,74.1,57.9,30.13,SSE,152,2.0,6.0,57,0.00,,,0.00,VWS V15.00,2017-06-28 15:40:00,
2017-06-28 11:41:00,74.2,57.0,30.13,ESE,123,1.0,6.0,55,0.00,,,0.00,VWS V15.00,2017-06-28 15:41:00,
2017-06-28 11:46:00,74.6,57.9,30.13,SSW,196,2.0,6.0,56,0.00,,,0.00,VWS V15.00,2017-06-28 15:46:00,
2017-06-28 11:51:00,74.5,57.8,30.13,ESE,114,2.0,6.0,56,0.00,,,0.00,VWS V15.00,2017-06-28 15:51:00,
2017-06-28 11:56:00,74.6,57.4,30.12,SSE,161,2.0,6.0,55,0.00,,,0.00,VWS V15.00,2017-06-28 15:56:00,
2017-06-28 12:01:00,74.7,57.5,30.13,South,186,3.0,5.0,55,0.00,,,0.00,VWS V15.00,2017-06-28 16:01:00,
2017-06-28 12:06:00,75.0,56.2,30.12,South,174,1.0,5.0,52,0.00,,,0.00,VWS V15.00,2017-06-28 16:06:00,
2017-06-28 12:11:00,75.3,57.0,30.12,SW,232,1.0,7.0,53,0.00,,,0.00,VWS V15.00,2017-06-28 16:11:00,
2017-06-28 12:17:00,75.6,59.3,30.12,South,176,2.0,7.0,57,0.00,,,0.00,VWS V15.00,2017-06-28 16:17:00,
2017-06-28 12:22:00,75.5,57.7,30.12,South,187,2.0,5.0,54,0.00,,,0.00,VWS V15.00,2017-06-28 16:22:00,
2017-06-28 12:27:00,75.2,58.9,30.12,SW,217,3.0,5.0,57,0.00,,,0.00,VWS V15.00,2017-06-28 16:27:00,
2017-06-28 12:32:00,75.2,57.9,30.12,SW,229,0.0,4.0,55,0.00,,,0.00,VWS V15.00,2017-06-28 16:32:00,
2017-06-28 12:37:00,75.6,58.3,30.12,WNW,299,1.0,4.0,55,0.00,,,0.00,VWS V15.00,2017-06-28 16:37:00,
2017-06-28 12:42:00,75.6,57.3,30.12,SW,235,3.0,4.0,53,0.00,,,0.00,VWS V15.00,2017-06-28 16:42:00,
2017-06-28 12:47:00,75.4,56.6,30.12,West,261,3.0,7.0,52,0.00,,,0.00,VWS V15.00,2017-06-28 16:47:00,
2017-06-28 12:52:00,75.1,56.8,30.12,SE,144,5.0,5.0,53,0.00,,,0.00,VWS V15.00,2017-06-28 16:52:00,
2017-06-28 12:57:00,75.5,57.2,30.11,WSW,254,1.0,5.0,53,0.00,,,0.00,VWS V15.00,2017-06-28 16:57:00,
2017-06-28 13:02:00,75.6,56.8,30.11,South,189,1.0,4.0,52,0.00,,,0.00,VWS V15.00,2017-06-28 17:02:00,
2017-06-28 13:07:00,75.6,58.8,30.11,South,180,1.0,4.0,56,0.00,,,0.00,VWS V15.00,2017-06-28 17:07:00,
2017-06-28 13:12:00,75.8,56.9,30.11,WSW,242,1.0,5.0,52,0.00,,,0.00,VWS V15.00,2017-06-28 17:12:00,
2017-06-28 13:18:00,75.8,57.5,30.11,WSW,240,1.0,5.0,53,0.00,,,0.00,VWS V15.00,2017-06-28 17:18:00,
2017-06-28 13:23:00,75.8,56.9,30.11,WSW,253,1.0,3.0,52,0.00,,,0.00,VWS V15.00,2017-06-28 17:23:00,
2017-06-28 13:28:00,76.2,56.2,30.11,WSW,243,2.0,5.0,50,0.00,,,0.00,VWS V15.00,2017-06-28 17:28:00,
2017-06-28 13:33:00,76.4,57.0,30.11,SSW,205,3.0,4.0,51,0.00,,,0.00,VWS V15.00,2017-06-28 17:33:00,
2017-06-28 13:38:00,76.3,56.9,30.11,WSW,242,2.0,5.0,51,0.00,,,0.00,VWS V15.00,2017-06-28 17:38:00,
2017-06-28 13:43:00,76.3,56.9,30.11,South,186,1.0,4.0,51,0.00,,,0.00,VWS V15.00,2017-06-28 17:43:00,
2017-06-28 13:48:00,76.4,56.4,30.11,SSW,202,3.0,4.0,50,0.00,,,0.00,VWS V15.00,2017-06-28 17:48:00,
2017-06-28 13:53:00,76.6,56.0,30.10,SW,215,1.0,3.0,49,0.00,,,0.00,VWS V15.00,2017-06-28 17:53:00,
2017-06-28 13:58:00,76.7,57.2,30.10,SW,215,2.0,3.0,51,0.00,,,0.00,VWS V15.00,2017-06-28 17:58:00,
2017-06-28 14:03:00,77.1,59.2,30.10,SSW,193,2.0,4.0,54,0.00,,,0.00,VWS V15.00,2017-06-28 18:03:00,
2017-06-28 14:08:00,77.0,57.5,30.10,South,181,1.0,4.0,51,0.00,,,0.00,VWS V15.00,2017-06-28 18:08:00,
2017-06-28 14:13:00,77.3,56.7,30.09,NNW,347,2.0,7.0,49,0.00,,,0.00,VWS V15.00,2017-06-28 18:13:00,
2017-06-28 14:18:00,77.9,58.9,30.09,SSE,165,1.0,7.0,52,0.00,,,0.00,VWS V15.00,2017-06-28 18:18:00,
2017-06-28 14:23:00,78.3,59.2,30.08,WSW,245,2.0,5.0,52,0.00,,,0.00,VWS V15.00,2017-06-28 18:23:00,
2017-06-28 14:28:00,78.0,58.4,30.08,SSW,198,2.0,5.0,51,0.00,,,0.00,VWS V15.00,2017-06-28 18:28:00,
2017-06-28 14:33:00,78.0,59.0,30.08,South,184,2.0,4.0,52,0.00,,,0.00,VWS V15.00,2017-06-28 18:33:00,
2017-06-28 14:39:00,78.0,58.4,30.08,SE,144,1.0,1.0,51,0.00,,,0.00,VWS V15.00,2017-06-28 18:39:00,
2017-06-28 14:43:00,78.2,58.6,30.08,SW,235,1.0,3.0,51,0.00,,,0.00,VWS V15.00,2017-06-28 18:43:00,
2017-06-28 14:48:00,78.2,57.5,30.08,SW,232,2.0,4.0,49,0.00,,,0.00,VWS V15.00,2017-06-28 18:48:00,
2017-06-28 14:53:00,78.4,60.4,30.08,SE,132,2.0,4.0,54,0.00,,,0.00,VWS V15.00,2017-06-28 18:53:00,
2017-06-28 14:58:00,78.4,58.8,30.07,SSE,167,2.0,5.0,51,0.00,,,0.00,VWS V15.00,2017-06-28 18:58:00,
2017-06-28 15:03:00,78.3,58.2,30.07,NW,305,3.0,5.0,50,0.00,,,0.00,VWS V15.00,2017-06-28 19:03:00,
2017-06-28 15:08:00,78.4,60.9,30.07,SSW,206,2.0,5.0,55,0.00,,,0.00,VWS V15.00,2017-06-28 19:08:00,
2017-06-28 15:14:00,79.0,58.8,30.06,WSW,244,3.0,4.0,50,0.00,,,0.00,VWS V15.00,2017-06-28 19:14:00,
2017-06-28 15:19:00,78.9,58.1,30.06,SSW,195,1.0,2.0,49,0.00,,,0.00,VWS V15.00,2017-06-28 19:19:00,
2017-06-28 15:24:00,79.0,59.3,30.06,SSW,209,1.0,8.0,51,0.00,,,0.00,VWS V15.00,2017-06-28 19:24:00,
2017-06-28 15:29:00,78.9,58.1,30.06,SSW,196,1.0,2.0,49,0.00,,,0.00,VWS V15.00,2017-06-28 19:29:00,
2017-06-28 15:34:00,79.0,58.2,30.05,South,172,1.0,6.0,49,0.00,,,0.00,VWS V15.00,2017-06-28 19:34:00,
2017-06-28 15:39:00,79.2,58.4,30.05,ESE,119,1.0,3.0,49,0.00,,,0.00,VWS V15.00,2017-06-28 19:39:00,
2017-06-28 15:44:00,79.5,58.1,30.05,SE,129,1.0,4.0,48,0.00,,,0.00,VWS V15.00,2017-06-28 19:44:00,
2017-06-28 15:49:00,79.7,59.4,30.05,SE,131,1.0,1.0,50,0.00,,,0.00,VWS V15.00,2017-06-28 19:49:00,
2017-06-28 15:54:00,79.9,59.0,30.05,ESE,121,4.0,8.0,49,0.00,,,0.00,VWS V15.00,2017-06-28 19:54:00,
2017-06-28 15:59:00,79.8,59.5,30.05,SE,133,2.0,6.0,50,0.00,,,0.00,VWS V15.00,2017-06-28 19:59:00,
2017-06-28 16:04:00,79.9,59.6,30.04,SW,223,3.0,6.0,50,0.00,,,0.00,VWS V15.00,2017-06-28 20:04:00,
2017-06-28 16:15:00,79.9,59.6,30.04,SE,138,4.0,6.0,50,0.00,,,0.00,VWS V15.00,2017-06-28 20:15:00,
2017-06-28 16:20:00,79.8,59.0,30.04,SSE,151,1.0,8.0,49,0.00,,,0.00,VWS V15.00,2017-06-28 20:20:00,
2017-06-28 16:25:00,79.6,58.8,30.04,South,169,1.0,8.0,49,0.00,,,0.00,VWS V15.00,2017-06-28 20:25:00,
2017-06-28 16:30:00,78.8,58.6,30.04,South,171,1.0,1.0,50,0.00,,,0.00,VWS V15.00,2017-06-28 20:30:00,
2017-06-28 16:35:00,78.6,59.5,30.04,SW,230,1.0,2.0,52,0.00,,,0.00,VWS V15.00,2017-06-28 20:35:00,
2017-06-28 16:40:00,78.8,58.6,30.03,SE,126,2.0,4.0,50,0.00,,,0.00,VWS V15.00,2017-06-28 20:40:00,
2017-06-28 16:45:00,78.9,58.7,30.03,South,177,4.0,5.0,50,0.00,,,0.00,VWS V15.00,2017-06-28 20:45:00,
2017-06-28 16:50:00,79.4,60.3,30.03,South,187,2.0,4.0,52,0.00,,,0.00,VWS V15.00,2017-06-28 20:50:00,
2017-06-28 16:55:00,79.4,59.2,30.03,SE,130,1.0,4.0,50,0.00,,,0.00,VWS V15.00,2017-06-28 20:55:00,
2017-06-28 17:00:00,79.6,58.2,30.03,SSW,199,2.0,2.0,48,0.00,,,0.00,VWS V15.00,2017-06-28 21:00:00,
2017-06-28 17:05:00,78.9,58.1,30.03,South,170,0.0,3.0,49,0.00,,,0.00,VWS V15.00,2017-06-28 21:05:00,
2017-06-28 17:10:00,78.5,57.8,30.03,South,188,2.0,5.0,49,0.00,,,0.00,VWS V15.00,2017-06-28 21:10:00,
2017-06-28 17:15:00,78.4,57.7,30.02,SW,223,1.0,5.0,49,0.00,,,0.00,VWS V15.00,2017-06-28 21:15:00,
2017-06-28 17:20:00,78.6,59.0,30.02,SW,223,2.0,2.0,51,0.00,,,0.00,VWS V15.00,2017-06-28 21:20:00,
2017-06-28 17:26:00,79.1,60.0,30.02,ESE,121,1.0,2.0,52,0.00,,,0.00,VWS V15.00,2017-06-28 21:26:00,
2017-06-28 17:31:00,79.5,59.2,30.02,SSE,152,1.0,5.0,50,0.00,,,0.00,VWS V15.00,2017-06-28 21:31:00,
2017-06-28 17:36:00,79.9,57.9,30.01,SE,142,2.0,6.0,47,0.00,,,0.00,VWS V15.00,2017-06-28 21:36:00,
2017-06-28 17:41:00,80.0,59.7,30.01,SSE,158,1.0,5.0,50,0.00,,,0.00,VWS V15.00,2017-06-28 21:41:00,
2017-06-28 17:46:00,79.8,59.0,30.01,SE,134,1.0,5.0,49,0.00,,,0.00,VWS V15.00,2017-06-28 21:46:00,
2017-06-28 17:51:00,79.4,56.8,30.01,SSW,199,2.0,4.0,46,0.00,,,0.00,VWS V15.00,2017-06-28 21:51:00,
2017-06-28 17:56:00,78.8,56.9,30.01,South,186,1.0,7.0,47,0.00,,,0.00,VWS V15.00,2017-06-28 21:56:00,
2017-06-28 18:01:00,78.7,58.5,30.01,SSW,195,2.0,4.0,50,0.00,,,0.00,VWS V15.00,2017-06-28 22:01:00,
2017-06-28 18:06:00,78.9,58.7,30.01,South,188,0.0,4.0,50,0.00,,,0.00,VWS V15.00,2017-06-28 22:06:00,
2017-06-28 18:11:00,79.0,58.2,30.00,SW,221,4.0,5.0,49,0.00,,,0.00,VWS V15.00,2017-06-28 22:11:00,
2017-06-28 18:16:00,79.1,58.3,30.00,SSW,209,1.0,5.0,49,0.00,,,0.00,VWS V15.00,2017-06-28 22:16:00,
2017-06-28 18:21:00,79.2,58.4,29.99,South,172,5.0,7.0,49,0.00,,,0.00,VWS V15.00,2017-06-28 22:21:00,
2017-06-28 18:26:00,78.9,59.2,29.99,South,182,2.0,7.0,51,0.00,,,0.00,VWS V15.00,2017-06-28 22:26:00,
2017-06-28 18:31:00,78.9,59.2,29.99,South,176,1.0,4.0,51,0.00,,,0.00,VWS V15.00,2017-06-28 22:31:00,
2017-06-28 18:36:00,78.7,59.1,29.98,SSE,159,2.0,4.0,51,0.00,,,0.00,VWS V15.00,2017-06-28 22:36:00,
2017-06-28 18:41:00,78.7,59.6,29.99,South,190,1.0,8.0,52,0.00,,,0.00,VWS V15.00,2017-06-28 22:41:00,
2017-06-28 18:47:00,78.6,57.9,29.99,South,180,2.0,8.0,49,0.00,,,0.00,VWS V15.00,2017-06-28 22:47:00,
2017-06-28 18:52:00,78.5,58.3,29.99,SSW,201,1.0,3.0,50,0.00,,,0.00,VWS V15.00,2017-06-28 22:52:00,
2017-06-28 18:57:00,78.5,58.9,29.99,South,189,1.0,4.0,51,0.00,,,0.00,VWS V15.00,2017-06-28 22:57:00,
2017-06-28 19:02:00,78.3,57.6,29.99,South,184,2.0,4.0,49,0.00,,,0.00,VWS V15.00,2017-06-28 23:02:00,